| time (UTC) | temp F | wind direction | speed MPH | gust MPH | rain 1hr in | rain 24hr in | rain mn in | humidity % | barometer mb |
| 20260506170044 | 83 | 132 | 10.0 | 15.0 | 0.00 | 0.00 | 0.00 | 86 | 1009.0 |
| 20260506165521 | 82 | 126 | 8.0 | 15.0 | 0.00 | 0.00 | 0.00 | 89 | 1009.1 |
| 20260506165023 | 81 | 155 | 7.0 | 11.0 | 0.00 | 0.00 | 0.00 | 90 | 1009.1 |
| 20260506164545 | 80 | 151 | 5.0 | 12.0 | 0.00 | 0.00 | 0.00 | 91 | 1009.2 |
| 20260506164022 | 80 | 161 | 6.0 | 16.0 | 0.00 | 0.00 | 0.00 | 91 | 1009.2 |
| 20260506163521 | 79 | 169 | 8.0 | 18.0 | 0.00 | 0.00 | 0.00 | 92 | 1009.2 |
| 20260506163043 | 79 | 179 | 9.0 | 18.0 | 0.00 | 0.00 | 0.00 | 92 | 1009.1 |
| 20260506162520 | 79 | 166 | 10.0 | 18.0 | 0.00 | 0.00 | 0.00 | 92 | 1009.1 |
| 20260506162022 | 79 | 155 | 10.0 | 17.0 | 0.00 | 0.00 | 0.00 | 93 | 1009.1 |
| 20260506161542 | 78 | 157 | 11.0 | 17.0 | 0.00 | 0.00 | 0.00 | 93 | 1009.1 |
| 20260506161022 | 78 | 150 | 9.0 | 15.0 | 0.00 | 0.00 | 0.00 | 93 | 1009.0 |
| 20260506160522 | 78 | 167 | 7.0 | 15.0 | 0.00 | 0.00 | 0.00 | 93 | 1009.0 |
| 20260506160047 | 78 | 159 | 9.0 | 14.0 | 0.00 | 0.00 | 0.00 | 93 | 1008.9 |
| 20260506155522 | 78 | 137 | 8.0 | 16.0 | 0.00 | 0.00 | 0.00 | 93 | 1008.9 |
| 20260506155022 | 78 | 159 | 11.0 | 16.0 | 0.00 | 0.00 | 0.00 | 93 | 1008.7 |
| 20260506154550 | 78 | 153 | 9.0 | 16.0 | 0.00 | 0.00 | 0.00 | 93 | 1008.6 |
| 20260506154018 | 78 | 148 | 10.0 | 16.0 | 0.00 | 0.00 | 0.00 | 93 | 1008.5 |
| 20260506153520 | 78 | 153 | 9.0 | 18.0 | 0.00 | 0.00 | 0.00 | 93 | 1008.6 |
| 20260506153036 | 78 | 144 | 10.0 | 19.0 | 0.00 | 0.00 | 0.00 | 93 | 1008.5 |
| 20260506152518 | 78 | 159 | 11.0 | 19.0 | 0.00 | 0.00 | 0.00 | 93 | 1008.5 |
| 20260506152019 | 78 | 157 | 10.0 | 16.0 | 0.00 | 0.00 | 0.00 | 93 | 1008.5 |
| 20260506151536 | 78 | 149 | 9.0 | 16.0 | 0.00 | 0.00 | 0.00 | 93 | 1008.5 |
| 20260506151018 | 78 | 154 | 10.0 | 16.0 | 0.00 | 0.00 | 0.00 | 93 | 1008.5 |
| 20260506150521 | 78 | 152 | 10.0 | 16.0 | 0.00 | 0.00 | 0.00 | 92 | 1008.5 |
| 20260506150036 | 78 | 160 | 9.0 | 17.0 | 0.00 | 0.00 | 0.00 | 92 | 1008.5 |
| 20260506145523 | 78 | 155 | 11.0 | 18.0 | 0.00 | 0.00 | 0.00 | 92 | 1008.5 |
| 20260506145018 | 79 | 158 | 13.0 | 18.0 | 0.00 | 0.00 | 0.00 | 92 | 1008.4 |
| 20260506144543 | 79 | 168 | 9.0 | 16.0 | 0.00 | 0.00 | 0.00 | 92 | 1008.5 |
| 20260506144021 | 79 | 115 | 8.0 | 16.0 | 0.00 | 0.00 | 0.00 | 92 | 1008.4 |
| 20260506143520 | 79 | 167 | 10.0 | 17.0 | 0.00 | 0.00 | 0.00 | 91 | 1008.4 |
| 20260506143039 | 79 | 146 | 10.0 | 17.0 | 0.00 | 0.00 | 0.00 | 91 | 1008.5 |
| 20260506142518 | 79 | 147 | 11.0 | 17.0 | 0.00 | 0.00 | 0.00 | 91 | 1008.5 |
| 20260506142017 | 79 | 156 | 11.0 | 16.0 | 0.00 | 0.00 | 0.00 | 91 | 1008.4 |
| 20260506141542 | 79 | 173 | 8.0 | 15.0 | 0.00 | 0.00 | 0.00 | 91 | 1008.5 |
| 20260506141020 | 79 | 162 | 10.0 | 17.0 | 0.00 | 0.00 | 0.00 | 91 | 1008.5 |
| 20260506140519 | 79 | 155 | 11.0 | 17.0 | 0.00 | 0.00 | 0.00 | 91 | 1008.3 |
| 20260506140035 | 78 | 137 | 11.0 | 17.0 | 0.00 | 0.00 | 0.00 | 91 | 1008.3 |
| 20260506135517 | 79 | 127 | 9.0 | 17.0 | 0.00 | 0.00 | 0.00 | 91 | 1008.3 |
| 20260506135019 | 79 | 136 | 11.0 | 18.0 | 0.00 | 0.00 | 0.00 | 91 | 1008.3 |
| 20260506134542 | 79 | 155 | 10.0 | 18.0 | 0.00 | 0.00 | 0.00 | 91 | 1008.2 |
| 20260506134020 | 79 | 130 | 12.0 | 17.0 | 0.00 | 0.00 | 0.00 | 91 | 1008.1 |
| 20260506133520 | 79 | 130 | 12.0 | 18.0 | 0.00 | 0.00 | 0.00 | 91 | 1008.1 |
| 20260506133040 | 79 | 128 | 9.0 | 19.0 | 0.00 | 0.00 | 0.00 | 91 | 1008.2 |
| 20260506132519 | 78 | 163 | 11.0 | 19.0 | 0.00 | 0.00 | 0.00 | 92 | 1008.2 |
| 20260506132020 | 78 | 123 | 11.0 | 17.0 | 0.00 | 0.00 | 0.00 | 92 | 1008.2 |
| 20260506131540 | 78 | 123 | 10.0 | 16.0 | 0.00 | 0.00 | 0.00 | 92 | 1008.3 |
| 20260506131021 | 78 | 124 | 8.0 | 12.0 | 0.00 | 0.00 | 0.00 | 92 | 1008.2 |
| 20260506130523 | 78 | 150 | 7.0 | 12.0 | 0.00 | 0.00 | 0.00 | 92 | 1008.1 |
| 20260506130039 | 78 | 130 | 6.0 | 13.0 | 0.00 | 0.00 | 0.00 | 92 | 1008.1 |
| 20260506125519 | 78 | 139 | 8.0 | 14.0 | 0.00 | 0.00 | 0.00 | 92 | 1008.0 |
| 20260506125022 | 78 | 132 | 8.0 | 14.0 | 0.00 | 0.00 | 0.00 | 92 | 1008.0 |
| 20260506124538 | 78 | 128 | 7.0 | 15.0 | 0.00 | 0.00 | 0.00 | 92 | 1008.0 |
| 20260506124020 | 78 | 130 | 9.0 | 15.0 | 0.00 | 0.00 | 0.00 | 92 | 1007.9 |
| 20260506123520 | 78 | 144 | 8.0 | 14.0 | 0.00 | 0.00 | 0.00 | 92 | 1007.8 |
| 20260506123040 | 78 | 136 | 7.0 | 11.0 | 0.00 | 0.00 | 0.00 | 92 | 1007.8 |
| 20260506122519 | 78 | 157 | 6.0 | 11.0 | 0.00 | 0.00 | 0.00 | 92 | 1007.7 |
| 20260506122019 | 78 | 132 | 7.0 | 11.0 | 0.00 | 0.00 | 0.00 | 92 | 1007.7 |
| 20260506121534 | 78 | 142 | 5.0 | 11.0 | 0.00 | 0.00 | 0.00 | 92 | 1007.7 |
| 20260506121020 | 78 | 140 | 7.0 | 12.0 | 0.00 | 0.00 | 0.00 | 92 | 1007.7 |
| 20260506120517 | 78 | 126 | 8.0 | 12.0 | 0.00 | 0.00 | 0.00 | 92 | 1007.6 |
| 20260506120105 | 78 | 132 | 7.0 | 13.0 | 0.00 | 0.00 | 0.00 | 92 | 1007.6 |
| 20260506115517 | 78 | 152 | 8.0 | 13.0 | 0.00 | 0.00 | 0.00 | 92 | 1007.6 |
| 20260506115019 | 78 | 107 | 8.0 | 13.0 | 0.00 | 0.00 | 0.00 | 92 | 1007.5 |
| 20260506114536 | 78 | 130 | 8.0 | 12.0 | 0.00 | 0.00 | 0.00 | 92 | 1007.5 |
| 20260506114020 | 78 | 144 | 8.0 | 11.0 | 0.00 | 0.00 | 0.00 | 92 | 1007.5 |
| 20260506113521 | 78 | 126 | 6.0 | 10.0 | 0.00 | 0.00 | 0.00 | 92 | 1007.4 |
| 20260506113036 | 78 | 153 | 7.0 | 10.0 | 0.00 | 0.00 | 0.00 | 92 | 1007.5 |
| 20260506112520 | 77 | 102 | 5.0 | 10.0 | 0.00 | 0.00 | 0.00 | 92 | 1007.5 |
| 20260506112020 | 78 | 136 | 5.0 | 9.0 | 0.00 | 0.00 | 0.00 | 92 | 1007.6 |
| 20260506111534 | 78 | 165 | 5.0 | 9.0 | 0.00 | 0.00 | 0.00 | 92 | 1007.5 |
| 20260506111019 | 78 | 85 | 5.0 | 9.0 | 0.00 | 0.00 | 0.00 | 92 | 1007.4 |
| 20260506110519 | 78 | 117 | 6.0 | 9.0 | 0.00 | 0.00 | 0.00 | 92 | 1007.5 |
| 20260506110035 | 78 | 124 | 4.0 | 10.0 | 0.00 | 0.00 | 0.00 | 92 | 1007.5 |
| 20260506105519 | 77 | 125 | 3.0 | 10.0 | 0.00 | 0.00 | 0.00 | 92 | 1007.5 |
| 20260506105020 | 77 | 129 | 7.0 | 10.0 | 0.00 | 0.00 | 0.00 | 92 | 1007.3 |
| 20260506104542 | 77 | 111 | 7.0 | 10.0 | 0.00 | 0.00 | 0.00 | 92 | 1007.2 |
| 20260506104017 | 77 | 119 | 5.0 | 9.0 | 0.00 | 0.00 | 0.00 | 92 | 1007.3 |
| 20260506103519 | 77 | 134 | 5.0 | 9.0 | 0.00 | 0.00 | 0.00 | 92 | 1007.4 |
| 20260506103038 | 77 | 143 | 5.0 | 9.0 | 0.00 | 0.00 | 0.00 | 92 | 1007.3 |
| 20260506102519 | 77 | 130 | 4.0 | 10.0 | 0.00 | 0.00 | 0.00 | 92 | 1007.1 |
| 20260506102019 | 77 | 136 | 6.0 | 10.0 | 0.00 | 0.00 | 0.00 | 92 | 1007.2 |
| 20260506101536 | 77 | 136 | 5.0 | 10.0 | 0.00 | 0.00 | 0.00 | 92 | 1007.2 |
| 20260506101020 | 77 | 157 | 5.0 | 10.0 | 0.00 | 0.00 | 0.00 | 92 | 1007.2 |
| 20260506100519 | 77 | 136 | 4.0 | 10.0 | 0.00 | 0.00 | 0.00 | 92 | 1007.3 |
| 20260506100035 | 77 | 132 | 5.0 | 10.0 | 0.00 | 0.00 | 0.00 | 92 | 1007.2 |
| 20260506095520 | 77 | 146 | 4.0 | 12.0 | 0.00 | 0.00 | 0.00 | 92 | 1007.2 |
| 20260506095018 | 77 | 136 | 8.0 | 12.0 | 0.00 | 0.00 | 0.00 | 92 | 1007.1 |
| 20260506094540 | 77 | 140 | 5.0 | 11.0 | 0.00 | 0.00 | 0.00 | 91 | 1007.3 |
| 20260506094018 | 77 | 118 | 7.0 | 12.0 | 0.00 | 0.00 | 0.00 | 91 | 1007.2 |
| 20260506093519 | 77 | 170 | 6.0 | 12.0 | 0.00 | 0.00 | 0.00 | 91 | 1007.1 |
| 20260506093044 | 77 | 161 | 6.0 | 13.0 | 0.00 | 0.00 | 0.00 | 91 | 1006.9 |
| 20260506092520 | 77 | 135 | 8.0 | 13.0 | 0.00 | 0.00 | 0.00 | 91 | 1007.0 |
| 20260506092020 | 77 | 146 | 9.0 | 13.0 | 0.00 | 0.00 | 0.00 | 91 | 1007.0 |
| 20260506091540 | 77 | 165 | 7.0 | 13.0 | 0.00 | 0.00 | 0.00 | 91 | 1006.9 |
| 20260506091019 | 77 | 142 | 8.0 | 14.0 | 0.00 | 0.00 | 0.00 | 91 | 1006.8 |
| 20260506090519 | 77 | 157 | 8.0 | 14.0 | 0.00 | 0.00 | 0.00 | 91 | 1006.7 |
| 20260506090042 | 77 | 147 | 8.0 | 16.0 | 0.00 | 0.00 | 0.00 | 91 | 1006.8 |
| 20260506085521 | 77 | 134 | 11.0 | 17.0 | 0.00 | 0.00 | 0.00 | 91 | 1006.8 |
| 20260506085021 | 77 | 134 | 7.0 | 17.0 | 0.00 | 0.00 | 0.00 | 91 | 1006.7 |
| 20260506084536 | 77 | 146 | 10.0 | 17.0 | 0.00 | 0.00 | 0.00 | 91 | 1006.7 |
| 20260506084020 | 77 | 138 | 9.0 | 15.0 | 0.00 | 0.00 | 0.00 | 91 | 1006.7 |
| 20260506083523 | 77 | 155 | 10.0 | 18.0 | 0.00 | 0.00 | 0.00 | 90 | 1006.8 |
| 20260506083042 | 77 | 136 | 10.0 | 19.0 | 0.00 | 0.00 | 0.00 | 90 | 1006.7 |
| 20260506082517 | 77 | 146 | 12.0 | 20.0 | 0.00 | 0.00 | 0.00 | 90 | 1006.6 |
| 20260506082020 | 78 | 159 | 13.0 | 20.0 | 0.00 | 0.00 | 0.00 | 90 | 1006.6 |
| 20260506081536 | 78 | 127 | 11.0 | 22.0 | 0.00 | 0.00 | 0.00 | 90 | 1006.8 |
| 20260506081019 | 78 | 140 | 12.0 | 22.0 | 0.00 | 0.00 | 0.00 | 90 | 1006.8 |
| 20260506080519 | 78 | 124 | 12.0 | 19.0 | 0.00 | 0.00 | 0.00 | 90 | 1006.8 |
| 20260506073520 | 78 | 142 | 13.0 | 20.0 | 0.00 | 0.00 | 0.00 | 89 | 1006.9 |
| 20260506073036 | 78 | 153 | 12.0 | 20.0 | 0.00 | 0.00 | 0.00 | 89 | 1007.2 |
| 20260506072520 | 78 | 159 | 11.0 | 20.0 | 0.00 | 0.00 | 0.00 | 89 | 1007.4 |
| 20260506072021 | 78 | 141 | 11.0 | 17.0 | 0.00 | 0.00 | 0.00 | 88 | 1007.4 |
| 20260506071547 | 78 | 155 | 11.0 | 20.0 | 0.00 | 0.00 | 0.00 | 88 | 1007.4 |
| 20260506071019 | 78 | 152 | 15.0 | 20.0 | 0.00 | 0.00 | 0.00 | 88 | 1007.6 |
| 20260506070519 | 78 | 161 | 12.0 | 21.0 | 0.00 | 0.00 | 0.00 | 88 | 1007.6 |
| 20260506062517 | 78 | 148 | 10.0 | 19.0 | 0.00 | 0.00 | 0.00 | 90 | 1008.1 |
| 20260506062020 | 78 | 128 | 12.0 | 19.0 | 0.00 | 0.00 | 0.00 | 90 | 1008.0 |
| 20260506061539 | 78 | 157 | 9.0 | 19.0 | 0.00 | 0.00 | 0.00 | 90 | 1007.9 |
| 20260506061021 | 78 | 144 | 11.0 | 22.0 | 0.00 | 0.00 | 0.00 | 91 | 1008.0 |
| 20260506060517 | 78 | 198 | 14.0 | 22.0 | 0.00 | 0.00 | 0.00 | 91 | 1008.0 |
| 20260506051019 | 78 | 132 | 13.0 | 21.0 | 0.00 | 0.00 | 0.00 | 90 | 1008.2 |
| 20260506050520 | 78 | 148 | 12.0 | 20.0 | 0.00 | 0.00 | 0.00 | 90 | 1008.2 |
| 20260506045018 | 78 | 148 | 10.0 | 18.0 | 0.00 | 0.00 | 0.00 | 90 | 1008.4 |
| 20260506044550 | 78 | 160 | 10.0 | 18.0 | 0.00 | 0.00 | 0.00 | 90 | 1008.5 |
| 20260506044019 | 78 | 140 | 11.0 | 20.0 | 0.00 | 0.00 | 0.00 | 90 | 1008.3 |
| 20260506043520 | 78 | 153 | 10.0 | 20.0 | 0.00 | 0.00 | 0.00 | 90 | 1008.3 |
| 20260506043036 | 78 | 153 | 13.0 | 19.0 | 0.00 | 0.00 | 0.00 | 90 | 1008.3 |
| 20260506042520 | 78 | 141 | 12.0 | 19.0 | 0.00 | 0.00 | 0.00 | 90 | 1008.4 |
| 20260506042020 | 78 | 111 | 14.0 | 19.0 | 0.00 | 0.00 | 0.00 | 90 | 1008.3 |
| 20260506041540 | 78 | 134 | 13.0 | 23.0 | 0.00 | 0.00 | 0.00 | 90 | 1008.2 |
| 20260506041019 | 78 | 126 | 13.0 | 23.0 | 0.00 | 0.00 | 0.00 | 90 | 1008.1 |
| 20260506040519 | 78 | 132 | 12.0 | 21.0 | 0.00 | 0.00 | 0.00 | 90 | 1008.1 |
| 20260506040041 | 78 | 142 | 13.0 | 21.0 | 0.00 | 0.00 | 0.00 | 90 | 1008.1 |
| 20260506035519 | 78 | 146 | 10.0 | 19.0 | 0.00 | 0.00 | 0.00 | 90 | 1008.0 |
| 20260506035019 | 78 | 125 | 12.0 | 22.0 | 0.00 | 0.00 | 0.00 | 90 | 1008.0 |
| 20260506034539 | 78 | 128 | 13.0 | 22.0 | 0.00 | 0.00 | 0.00 | 90 | 1008.0 |
| 20260506034020 | 78 | 159 | 13.0 | 21.0 | 0.00 | 0.00 | 0.00 | 90 | 1008.0 |
| 20260506033519 | 78 | 121 | 10.0 | 20.0 | 0.00 | 0.00 | 0.00 | 90 | 1007.8 |
| 20260506033039 | 78 | 158 | 11.0 | 25.0 | 0.00 | 0.00 | 0.00 | 90 | 1007.6 |
| 20260506032519 | 78 | 145 | 13.0 | 25.0 | 0.00 | 0.00 | 0.00 | 90 | 1007.4 |
| 20260506032020 | 78 | 161 | 13.0 | 23.0 | 0.00 | 0.00 | 0.00 | 90 | 1007.5 |
| 20260506031553 | 78 | 147 | 13.0 | 21.0 | 0.00 | 0.00 | 0.00 | 90 | 1007.6 |
| 20260506031020 | 78 | 123 | 12.0 | 20.0 | 0.00 | 0.00 | 0.00 | 90 | 1007.6 |
| 20260506030519 | 78 | 149 | 12.0 | 21.0 | 0.00 | 0.00 | 0.00 | 90 | 1007.7 |
| 20260506030043 | 78 | 150 | 14.0 | 21.0 | 0.00 | 0.00 | 0.00 | 90 | 1007.6 |
| 20260506025523 | 78 | 147 | 14.0 | 21.0 | 0.00 | 0.00 | 0.00 | 91 | 1007.5 |
| 20260506025019 | 78 | 131 | 13.0 | 20.0 | 0.00 | 0.00 | 0.00 | 91 | 1007.4 |
| 20260506024538 | 78 | 128 | 13.0 | 20.0 | 0.00 | 0.00 | 0.00 | 90 | 1007.5 |
| 20260506024019 | 78 | 155 | 13.0 | 22.0 | 0.00 | 0.00 | 0.00 | 90 | 1007.6 |
| 20260506023519 | 78 | 139 | 12.0 | 22.0 | 0.00 | 0.00 | 0.00 | 90 | 1007.4 |
| 20260506023040 | 78 | 138 | 13.0 | 26.0 | 0.00 | 0.00 | 0.00 | 90 | 1007.3 |
| 20260506022519 | 78 | 126 | 13.0 | 26.0 | 0.00 | 0.00 | 0.00 | 90 | 1007.2 |
| 20260506022019 | 78 | 142 | 10.0 | 23.0 | 0.00 | 0.00 | 0.00 | 90 | 1007.2 |
| 20260506021540 | 78 | 128 | 13.0 | 22.0 | 0.00 | 0.00 | 0.00 | 90 | 1007.1 |
| 20260506021018 | 78 | 135 | 13.0 | 22.0 | 0.00 | 0.00 | 0.00 | 90 | 1007.1 |
| 20260506020520 | 78 | 149 | 14.0 | 23.0 | 0.00 | 0.00 | 0.00 | 90 | 1006.9 |
| 20260506020036 | 78 | 122 | 13.0 | 23.0 | 0.00 | 0.00 | 0.00 | 90 | 1006.8 |
| 20260506015523 | 78 | 130 | 13.0 | 23.0 | 0.00 | 0.00 | 0.00 | 90 | 1006.8 |
| 20260506015019 | 78 | 154 | 14.0 | 23.0 | 0.00 | 0.00 | 0.00 | 89 | 1006.8 |
| 20260506014537 | 78 | 120 | 15.0 | 23.0 | 0.00 | 0.00 | 0.00 | 89 | 1006.8 |
| 20260506014019 | 78 | 144 | 12.0 | 24.0 | 0.00 | 0.00 | 0.00 | 89 | 1006.7 |
| 20260506013519 | 78 | 121 | 14.0 | 24.0 | 0.00 | 0.00 | 0.00 | 89 | 1006.6 |
| 20260506013041 | 78 | 148 | 15.0 | 22.0 | 0.00 | 0.00 | 0.00 | 89 | 1006.5 |
| 20260506012520 | 78 | 134 | 13.0 | 24.0 | 0.00 | 0.00 | 0.00 | 89 | 1006.5 |
| 20260506012019 | 78 | 136 | 15.0 | 24.0 | 0.00 | 0.00 | 0.00 | 89 | 1006.4 |
| 20260506011534 | 78 | 138 | 15.0 | 28.0 | 0.00 | 0.00 | 0.00 | 89 | 1006.4 |
| 20260506011019 | 78 | 135 | 16.0 | 28.0 | 0.00 | 0.00 | 0.00 | 88 | 1006.4 |
| 20260506010519 | 78 | 151 | 16.0 | 29.0 | 0.00 | 0.00 | 0.00 | 88 | 1006.3 |
| 20260506010040 | 78 | 162 | 15.0 | 29.0 | 0.00 | 0.00 | 0.00 | 88 | 1006.2 |
| 20260506005517 | 78 | 155 | 17.0 | 23.0 | 0.00 | 0.00 | 0.00 | 88 | 1006.2 |
| 20260506005022 | 79 | 142 | 15.0 | 23.0 | 0.00 | 0.00 | 0.00 | 88 | 1006.1 |
| 20260506004606 | 79 | 137 | 14.0 | 24.0 | 0.00 | 0.00 | 0.00 | 88 | 1006.2 |
| 20260506004020 | 79 | 174 | 14.0 | 24.0 | 0.00 | 0.00 | 0.00 | 87 | 1006.2 |
| 20260506003519 | 79 | 149 | 14.0 | 24.0 | 0.00 | 0.00 | 0.00 | 87 | 1006.1 |
| 20260506003037 | 79 | 360 | 14.0 | 28.0 | 0.00 | 0.00 | 0.00 | 87 | 1006.0 |
| 20260506002518 | 80 | 135 | 14.0 | 28.0 | 0.00 | 0.00 | 0.00 | 87 | 1006.0 |
| 20260506002018 | 80 | 150 | 18.0 | 28.0 | 0.00 | 0.00 | 0.00 | 86 | 1006.0 |
| 20260506001555 | 80 | 145 | 16.0 | 25.0 | 0.00 | 0.00 | 0.00 | 86 | 1006.1 |
| 20260506001020 | 80 | 126 | 15.0 | 25.0 | 0.00 | 0.00 | 0.00 | 86 | 1006.1 |
| 20260506000520 | 80 | 122 | 16.0 | 27.0 | 0.00 | 0.00 | 0.00 | 86 | 1006.1 |
| 20260506000035 | 80 | 132 | 19.0 | 27.0 | 0.00 | 0.00 | 0.00 | 85 | 1006.1 |
| 20260505235519 | 80 | 130 | 16.0 | 27.0 | 0.00 | 0.00 | 0.00 | 85 | 1006.0 |
| 20260505235021 | 81 | 136 | 16.0 | 27.0 | 0.00 | 0.00 | 0.00 | 84 | 1006.0 |
| 20260505234606 | 81 | 143 | 17.0 | 27.0 | 0.00 | 0.00 | 0.00 | 83 | 1005.9 |
| 20260505234020 | 81 | 182 | 15.0 | 24.0 | 0.00 | 0.00 | 0.00 | 84 | 1005.9 |
| 20260505233520 | 81 | 142 | 15.0 | 29.0 | 0.00 | 0.00 | 0.00 | 83 | 1005.9 |
| 20260505233040 | 82 | 149 | 15.0 | 29.0 | 0.00 | 0.00 | 0.00 | 83 | 1005.8 |
| 20260505232519 | 82 | 159 | 17.0 | 30.0 | 0.00 | 0.00 | 0.00 | 82 | 1005.7 |
| 20260505232019 | 82 | 159 | 19.0 | 29.0 | 0.00 | 0.00 | 0.00 | 82 | 1005.8 |
| 20260505231541 | 82 | 140 | 15.0 | 29.0 | 0.00 | 0.00 | 0.00 | 81 | 1005.8 |
| 20260505231018 | 82 | 119 | 17.0 | 29.0 | 0.00 | 0.00 | 0.00 | 81 | 1005.8 |
| 20260505230521 | 83 | 132 | 20.0 | 30.0 | 0.00 | 0.00 | 0.00 | 80 | 1005.8 |
| 20260505230038 | 83 | 155 | 16.0 | 30.0 | 0.00 | 0.00 | 0.00 | 81 | 1005.9 |
| 20260505225519 | 83 | 130 | 20.0 | 30.0 | 0.00 | 0.00 | 0.00 | 80 | 1005.8 |
| 20260505225022 | 83 | 144 | 15.0 | 29.0 | 0.00 | 0.00 | 0.00 | 80 | 1005.8 |
| 20260505224536 | 83 | 123 | 16.0 | 29.0 | 0.00 | 0.00 | 0.00 | 80 | 1005.8 |
| 20260505224021 | 84 | 144 | 15.0 | 27.0 | 0.00 | 0.00 | 0.00 | 79 | 1005.8 |
| 20260505223519 | 84 | 173 | 15.0 | 30.0 | 0.00 | 0.00 | 0.00 | 79 | 1005.8 |
| 20260505223058 | 84 | 175 | 20.0 | 33.0 | 0.00 | 0.00 | 0.00 | 79 | 1005.7 |
| 20260505222521 | 84 | 132 | 19.0 | 33.0 | 0.00 | 0.00 | 0.00 | 78 | 1005.7 |
| 20260505222019 | 84 | 156 | 20.0 | 31.0 | 0.00 | 0.00 | 0.00 | 79 | 1005.8 |
| 20260505221556 | 85 | 132 | 17.0 | 30.0 | 0.00 | 0.00 | 0.00 | 77 | 1005.8 |
| 20260505221019 | 85 | 167 | 19.0 | 30.0 | 0.00 | 0.00 | 0.00 | 77 | 1005.9 |
| 20260505220520 | 85 | 152 | 18.0 | 30.0 | 0.00 | 0.00 | 0.00 | 77 | 1006.0 |
| 20260505220043 | 85 | 133 | 20.0 | 30.0 | 0.00 | 0.00 | 0.00 | 77 | 1006.0 |
| 20260505215520 | 85 | 140 | 19.0 | 30.0 | 0.00 | 0.00 | 0.00 | 77 | 1006.0 |
| 20260505215021 | 85 | 163 | 18.0 | 30.0 | 0.00 | 0.00 | 0.00 | 76 | 1006.1 |
| 20260505214543 | 85 | 139 | 20.0 | 31.0 | 0.00 | 0.00 | 0.00 | 76 | 1006.1 |
| 20260505214020 | 85 | 139 | 21.0 | 31.0 | 0.00 | 0.00 | 0.00 | 76 | 1006.2 |
| 20260505213519 | 85 | 146 | 17.0 | 29.0 | 0.00 | 0.00 | 0.00 | 75 | 1006.4 |
| 20260505213038 | 85 | 146 | 19.0 | 29.0 | 0.00 | 0.00 | 0.00 | 76 | 1006.4 |
| 20260505212522 | 86 | 158 | 17.0 | 31.0 | 0.00 | 0.00 | 0.00 | 75 | 1006.5 |
| 20260505212023 | 86 | 155 | 20.0 | 31.0 | 0.00 | 0.00 | 0.00 | 75 | 1006.5 |
| 20260505211536 | 86 | 159 | 19.0 | 34.0 | 0.00 | 0.00 | 0.00 | 75 | 1006.5 |
| 20260505211019 | 85 | 148 | 20.0 | 34.0 | 0.00 | 0.00 | 0.00 | 76 | 1006.5 |
| 20260505210521 | 85 | 128 | 21.0 | 32.0 | 0.00 | 0.00 | 0.00 | 77 | 1006.6 |
| 20260505210043 | 85 | 141 | 24.0 | 32.0 | 0.00 | 0.00 | 0.00 | 75 | 1006.7 |
| 20260505205522 | 86 | 150 | 21.0 | 32.0 | 0.00 | 0.00 | 0.00 | 74 | 1006.8 |
| 20260505205021 | 86 | 153 | 20.0 | 31.0 | 0.00 | 0.00 | 0.00 | 75 | 1006.9 |
| 20260505204542 | 86 | 150 | 19.0 | 31.0 | 0.00 | 0.00 | 0.00 | 74 | 1007.0 |
| 20260505204021 | 86 | 126 | 17.0 | 29.0 | 0.00 | 0.00 | 0.00 | 75 | 1007.0 |
| 20260505203521 | 85 | 157 | 19.0 | 32.0 | 0.00 | 0.00 | 0.00 | 75 | 1007.1 |
| 20260505203037 | 85 | 142 | 18.0 | 32.0 | 0.00 | 0.00 | 0.00 | 75 | 1007.3 |
| 20260505202520 | 85 | 144 | 21.0 | 29.0 | 0.00 | 0.00 | 0.00 | 74 | 1007.3 |
| 20260505202021 | 86 | 142 | 20.0 | 29.0 | 0.00 | 0.00 | 0.00 | 74 | 1007.4 |
| 20260505201535 | 85 | 149 | 17.0 | 30.0 | 0.00 | 0.00 | 0.00 | 76 | 1007.3 |
| 20260505201022 | 85 | 139 | 17.0 | 30.0 | 0.00 | 0.00 | 0.00 | 75 | 1007.4 |
| 20260505200522 | 86 | 146 | 18.0 | 32.0 | 0.00 | 0.00 | 0.00 | 75 | 1007.5 |
| 20260505200037 | 86 | 155 | 19.0 | 32.0 | 0.00 | 0.00 | 0.00 | 75 | 1007.5 |
| 20260505195519 | 85 | 169 | 17.0 | 29.0 | 0.00 | 0.00 | 0.00 | 76 | 1007.5 |
| 20260505195022 | 86 | 160 | 19.0 | 29.0 | 0.00 | 0.00 | 0.00 | 75 | 1007.6 |
| 20260505194535 | 86 | 143 | 17.0 | 30.0 | 0.00 | 0.00 | 0.00 | 75 | 1007.6 |
| 20260505194019 | 85 | 140 | 17.0 | 30.0 | 0.00 | 0.00 | 0.00 | 76 | 1007.5 |
| 20260505193521 | 85 | 158 | 20.0 | 30.0 | 0.00 | 0.00 | 0.00 | 76 | 1007.6 |
| 20260505193041 | 86 | 157 | 18.0 | 31.0 | 0.00 | 0.00 | 0.00 | 76 | 1007.6 |
| 20260505192522 | 86 | 140 | 17.0 | 31.0 | 0.00 | 0.00 | 0.00 | 75 | 1007.6 |
| 20260505192021 | 86 | 148 | 19.0 | 29.0 | 0.00 | 0.00 | 0.00 | 75 | 1007.7 |
| 20260505191539 | 86 | 157 | 20.0 | 30.0 | 0.00 | 0.00 | 0.00 | 75 | 1007.7 |
| 20260505191018 | 85 | 171 | 18.0 | 33.0 | 0.00 | 0.00 | 0.00 | 75 | 1007.8 |
| 20260505190518 | 85 | 157 | 20.0 | 33.0 | 0.00 | 0.00 | 0.00 | 75 | 1007.8 |
| 20260505190044 | 85 | 158 | 18.0 | 31.0 | 0.00 | 0.00 | 0.00 | 75 | 1007.9 |
| 20260505185521 | 85 | 182 | 19.0 | 29.0 | 0.00 | 0.00 | 0.00 | 75 | 1007.9 |
| 20260505185019 | 86 | 139 | 20.0 | 28.0 | 0.00 | 0.00 | 0.00 | 75 | 1007.9 |
| 20260505184537 | 85 | 144 | 17.0 | 28.0 | 0.00 | 0.00 | 0.00 | 76 | 1007.9 |
| 20260505184021 | 86 | 158 | 18.0 | 28.0 | 0.00 | 0.00 | 0.00 | 75 | 1007.9 |
| 20260505183518 | 85 | 139 | 19.0 | 28.0 | 0.00 | 0.00 | 0.00 | 75 | 1008.0 |
| 20260505183047 | 85 | 165 | 19.0 | 28.0 | 0.00 | 0.00 | 0.00 | 75 | 1007.9 |
| 20260505182521 | 85 | 152 | 19.0 | 29.0 | 0.00 | 0.00 | 0.00 | 75 | 1008.0 |
| 20260505182019 | 85 | 153 | 20.0 | 29.0 | 0.00 | 0.00 | 0.00 | 75 | 1008.1 |
| 20260505181537 | 86 | 169 | 20.0 | 28.0 | 0.00 | 0.00 | 0.00 | 75 | 1008.2 |
| 20260505181023 | 85 | 158 | 19.0 | 30.0 | 0.00 | 0.00 | 0.00 | 75 | 1008.3 |
| 20260505180520 | 85 | 154 | 16.0 | 30.0 | 0.00 | 0.00 | 0.00 | 76 | 1008.3 |
| 20260505180039 | 85 | 157 | 19.0 | 25.0 | 0.00 | 0.00 | 0.00 | 75 | 1008.4 |
| 20260505175520 | 85 | 142 | 18.0 | 25.0 | 0.00 | 0.00 | 0.00 | 76 | 1008.5 |
| 20260505175019 | 85 | 151 | 15.0 | 30.0 | 0.00 | 0.00 | 0.00 | 78 | 1008.5 |
| 20260505174543 | 85 | 167 | 17.0 | 30.0 | 0.00 | 0.00 | 0.00 | 77 | 1008.6 |
| 20260505174019 | 84 | 149 | 17.0 | 26.0 | 0.00 | 0.00 | 0.00 | 77 | 1008.7 |
| 20260505173517 | 84 | 155 | 19.0 | 26.0 | 0.00 | 0.00 | 0.00 | 78 | 1008.8 |
| 20260505173043 | 84 | 163 | 15.0 | 24.0 | 0.00 | 0.00 | 0.00 | 79 | 1008.8 |
| 20260505172520 | 83 | 152 | 16.0 | 24.0 | 0.00 | 0.00 | 0.00 | 80 | 1008.9 |
| 20260505172020 | 83 | 159 | 17.0 | 25.0 | 0.00 | 0.00 | 0.00 | 80 | 1009.0 |
| 20260505171536 | 83 | 144 | 17.0 | 25.0 | 0.00 | 0.00 | 0.00 | 79 | 1009.1 |
| 20260505171019 | 83 | 152 | 17.0 | 25.0 | 0.00 | 0.00 | 0.00 | 79 | 1009.1 |
| 20260505170519 | 83 | 171 | 17.0 | 24.0 | 0.00 | 0.00 | 0.00 | 79 | 1009.1 |